Location: Miles
(41.4492°N, 81.6087°W)
Time: 08:24:05
(UTC+00:00)

Vanguard 3 - Pass Details

Date: 20 September 2024
Orbit: 507 x 3223 km, 33.3° (Epoch: 12 October)

Event Time Altitude Azimuth Distance (km) Brightness Sun altitude
Exits shadow 07:51:58 12° 166° (SSE) 4,838 10.8 -35.5°
Maximum altitude 08:00:16 20° 131° (SE) 4,823 11.1 -34.3°
Drops below altitude 10° 08:11:40 10° 93° (E) 6,089 12.1 -32.6°
Sets 08:18:36 0° 80° (E) 7,183 12.9 -31.5°
